Regional Weather Roundup
Issued by NWS Newport/Morehead, NC

Current Version | Previous Version | Text Only | Print | Product List | Glossary On
Versions: 1 2 3 4 5 6 7 8 9 10 11 12 13 14 15 16 17 18 19 20 21 22 23 24 25 26 27 28 29 30 31 32 33 34 35 36 37 38 39 40 41 42 43 44 45 46 47 48 49 50
000
ASUS42 KMHX 291227
RWRMHX
WEATHER ROUNDUP FOR EASTERN NORTH CAROLINA
NATIONAL WEATHER SERVICE NEWPORT/MOREHEAD CITY NC
800 AM EDT SUN MAR 29 2015

NOTE: "FAIR" INDICATES FEW OR NO CLOUDS BELOW 12,000 FEET
WITH NO SIGNIFICANT WEATHER AND/OR OBSTRUCTIONS TO VISIBILITY

NCZ015>017-031-032-045>047-102-103-291300-
NORTH COAST

CITY           SKY/WX    TMP DP  RH WIND       PRES   REMARKS
EDENTON        SUNNY     31  15  51 N14       30.39R
ELIZABETH CITY SUNNY     30  13  49 NW13      30.37R WCI  20
KITTY HAWK     SUNNY     32  13  46 NW9       30.34R
MANTEO         SUNNY     32  10  40 N14G22    30.36R

$$

NCZ045>047-081-094-103-104-291300-
CENTRAL COAST

CITY           SKY/WX    TMP DP  RH WIND       PRES   REMARKS
FRISCO         SUNNY     33  13  43 N10G23    30.35R
SWANQUARTER      N/A     30 N/A N/A N2G10     30.36R

$$

NCZ095-097-098-100-101-291300-
SOUTHERN COAST

CITY           SKY/WX    TMP DP  RH WIND       PRES   REMARKS
BEAUFORT       SUNNY     33  16  49 N10       30.38R
CEDAR ISLAND     N/A     36 N/A N/A N14G26    30.41R
JACKSONVILLE   SUNNY     31  18  58 NW8       30.40R
PINEY ISLAND   SUNNY    N/A N/A N/A NW17G24   30.37R
WILMINGTON     SUNNY     31  18  58 N8        30.40R


$$

NCZ011>013-027>030-043-044-078>080-089-090>093-098-291300-
COASTAL PLAIN

CITY           SKY/WX    TMP DP  RH WIND       PRES   REMARKS
AHOSKIE        SUNNY     27  14  56 N3        30.41R
CLINTON        SUNNY     32  18  57 N3        30.43R
ELIZABETHTOWN  SUNNY     32  19  59 N3        30.42R
GOLDSBORO      SUNNY     30  22  72 NW6       30.39R
GREENVILLE     SUNNY     32  18  55 N5        30.41R
HAVELOCK       SUNNY     34  12  40 N15       30.40R
KENANSVILLE    SUNNY     31  17  54 NW3       30.42R
KINSTON        SUNNY     28  19  69 NW3       30.41R
NEW BERN       SUNNY     31  18  58 NW6       30.40R
RICHLANDS      SUNNY     30  16  55 CALM      30.41R
ROCKY MOUNT    SUNNY     30  14  51 N8        30.41R
WASHINGTON     SUNNY     29  19  65 N3        30.41R
WHITEVILLE     SUNNY     33  19  58 CALM      30.42R

$$

AMZ130-135-150-152-154-156-158-170-250-252-270-ANZ085-086-088-633-658-670-291300-
MARINE OBSERVATIONS

STATION/POSITION TIME  TEMP    WIND        PRES    WAVE   SWELL
                       AIR SEA DIR/SP/G            HT/PER HT/PER
                 (UTC) (F)     (DEG/KT/KT) (MB)    (FT/S) (FT/S)
CHESAPEAKE LIGHT 1200   31     340/ 23/ 24 1027.7
64 E VA BEACH    1150   35 52  330/ 21/ 27 1025.3    7/ 6   2/10
DUCK             NOT AVBL
2 E DUCK         1211      42                N/A     4/ 6
10 NE DUCK       NOT AVBL
OREGON INLET     NOT AVBL
HATTERAS CG      NOT AVBL
CAPE LOOKOUT     1200   34     350/ 16/ 19 1028.3
BEAUFORT LAB     NOT AVBL
27 SE WRIGHTSVLE 1200   36 64   40/ 17/ 19 1029.3
5 SE WRIGHTSVLE  1200   38 55   10/ 16/ 19 1028.9
225 S CAPE HAT   1150   56 68  330/ 23/ 27 1023.3   10/ 8
41 SE CHARLESTON 1150   48 67   20/ 19/ 25 1027.4    6/ 6

$$


USA.gov is the U.S. government's official web portal to all federal, state and local government web resources and services.